Time,TemperatureF,DewpointF,PressureIn,WindDirection,WindDirectionDegrees,WindSpeedMPH,WindSpeedGustMPH,Humidity,HourlyPrecipIn,Conditions,Clouds,dailyrainin,SoftwareType,DateUTC
2013-01-15 00:03:00,12.3,-2.8,30.39,NW,314,0.0,0.0,50,0.00,,,0.00,Wunderground v.1.15,2013-01-15 07:03:00,
2013-01-15 00:09:00,12.1,-3.0,30.39,NW,314,0.0,0.0,50,0.00,,,0.00,Wunderground v.1.15,2013-01-15 07:09:00,
2013-01-15 00:14:00,11.9,-3.2,30.39,NW,314,0.0,0.0,50,0.00,,,0.00,Wunderground v.1.15,2013-01-15 07:14:00,
2013-01-15 00:19:00,11.6,-2.7,30.39,NW,314,0.0,0.0,52,0.00,,,0.00,Wunderground v.1.15,2013-01-15 07:19:00,
2013-01-15 00:24:00,11.4,-3.3,30.40,NW,314,0.0,0.0,51,0.00,,,0.00,Wunderground v.1.15,2013-01-15 07:24:00,
2013-01-15 00:29:00,11.1,-3.5,30.39,NW,314,0.0,0.0,51,0.00,,,0.00,Wunderground v.1.15,2013-01-15 07:29:00,
2013-01-15 00:34:00,10.9,-3.7,30.39,NW,314,0.0,0.0,51,0.00,,,0.00,Wunderground v.1.15,2013-01-15 07:34:00,
2013-01-15 00:39:00,10.9,-3.3,30.40,NW,314,0.0,0.0,52,0.00,,,0.00,Wunderground v.1.15,2013-01-15 07:39:00,
2013-01-15 00:44:00,10.8,-3.0,30.40,NW,314,1.0,1.0,53,0.00,,,0.00,Wunderground v.1.15,2013-01-15 07:44:00,
2013-01-15 00:49:00,10.9,-2.9,30.40,NNW,330,0.0,1.0,53,0.00,,,0.00,Wunderground v.1.15,2013-01-15 07:49:00,
2013-01-15 00:55:00,11.3,-2.9,30.40,NNW,340,0.0,4.0,52,0.00,,,0.00,Wunderground v.1.15,2013-01-15 07:55:00,
2013-01-15 01:00:00,11.6,-3.1,30.40,NW,325,1.0,4.0,51,0.00,,,0.00,Wunderground v.1.15,2013-01-15 08:00:00,
2013-01-15 01:05:00,11.7,-3.0,30.40,NNW,329,0.0,2.0,51,0.00,,,0.00,Wunderground v.1.15,2013-01-15 08:05:00,
2013-01-15 01:10:00,11.7,-3.4,30.41,North,9,0.0,2.0,50,0.00,,,0.00,Wunderground v.1.15,2013-01-15 08:10:00,
2013-01-15 01:15:00,11.6,-3.1,30.41,NNW,334,1.0,3.0,51,0.00,,,0.00,Wunderground v.1.15,2013-01-15 08:15:00,
2013-01-15 01:21:00,11.6,-3.5,30.41,NNW,338,0.0,1.0,50,0.00,,,0.00,Wunderground v.1.15,2013-01-15 08:21:00,
2013-01-15 01:26:00,11.6,-3.5,30.42,NNW,338,0.0,1.0,50,0.00,,,0.00,Wunderground v.1.15,2013-01-15 08:26:00,
2013-01-15 01:32:00,11.6,-3.5,30.42,NNW,338,0.0,1.0,50,0.00,,,0.00,Wunderground v.1.15,2013-01-15 08:32:00,
2013-01-15 01:37:00,11.4,-3.3,30.43,NNW,338,0.0,1.0,51,0.00,,,0.00,Wunderground v.1.15,2013-01-15 08:37:00,
2013-01-15 01:43:00,11.2,-3.4,30.43,NNW,338,0.0,0.0,51,0.00,,,0.00,Wunderground v.1.15,2013-01-15 08:43:00,
2013-01-15 01:48:00,11.1,-3.5,30.43,NNW,338,0.0,0.0,51,0.00,,,0.00,Wunderground v.1.15,2013-01-15 08:48:00,
2013-01-15 01:53:00,11.0,-3.6,30.43,NNW,338,0.0,0.0,51,0.00,,,0.00,Wunderground v.1.15,2013-01-15 08:53:00,
2013-01-15 01:58:00,10.8,-3.4,30.43,NNW,338,0.0,0.0,52,0.00,,,0.00,Wunderground v.1.15,2013-01-15 08:58:00,
2013-01-15 02:03:00,10.6,-3.6,30.43,NNW,338,0.0,0.0,52,0.00,,,0.00,Wunderground v.1.15,2013-01-15 09:03:00,
2013-01-15 02:08:00,10.5,-3.7,30.43,NNW,338,0.0,0.0,52,0.00,,,0.00,Wunderground v.1.15,2013-01-15 09:08:00,
2013-01-15 02:13:00,10.3,-3.9,30.43,NNW,338,0.0,0.0,52,0.00,,,0.00,Wunderground v.1.15,2013-01-15 09:13:00,
2013-01-15 02:18:00,10.3,-3.9,30.43,NNW,338,0.0,0.0,52,0.00,,,0.00,Wunderground v.1.15,2013-01-15 09:18:00,
2013-01-15 02:23:00,10.1,-3.7,30.43,NNW,338,0.0,0.0,53,0.00,,,0.00,Wunderground v.1.15,2013-01-15 09:23:00,
2013-01-15 02:28:00,9.9,-3.8,30.43,NNW,338,0.0,0.0,53,0.00,,,0.00,Wunderground v.1.15,2013-01-15 09:28:00,
2013-01-15 02:33:00,9.7,-3.6,30.43,NNW,338,0.0,0.0,54,0.00,,,0.00,Wunderground v.1.15,2013-01-15 09:33:00,
2013-01-15 02:38:00,9.7,-3.6,30.43,NNW,338,0.0,0.0,54,0.00,,,0.00,Wunderground v.1.15,2013-01-15 09:38:00,
2013-01-15 02:43:00,9.7,-3.6,30.43,NNW,338,0.0,0.0,54,0.00,,,0.00,Wunderground v.1.15,2013-01-15 09:43:00,
2013-01-15 02:48:00,9.6,-3.7,30.43,NNW,338,0.0,0.0,54,0.00,,,0.00,Wunderground v.1.15,2013-01-15 09:48:00,
2013-01-15 02:53:00,9.6,-3.7,30.44,NNW,338,0.0,0.0,54,0.00,,,0.00,Wunderground v.1.15,2013-01-15 09:53:00,
2013-01-15 02:58:00,9.5,-3.4,30.44,NNW,338,0.0,0.0,55,0.00,,,0.00,Wunderground v.1.15,2013-01-15 09:58:00,
2013-01-15 03:04:00,9.3,-3.6,30.45,NNW,338,0.0,0.0,55,0.00,,,0.00,Wunderground v.1.15,2013-01-15 10:04:00,
2013-01-15 03:09:00,9.2,-3.7,30.45,NNW,338,0.0,0.0,55,0.00,,,0.00,Wunderground v.1.15,2013-01-15 10:09:00,
2013-01-15 03:14:00,9.1,-3.8,30.44,NNW,338,0.0,0.0,55,0.00,,,0.00,Wunderground v.1.15,2013-01-15 10:14:00,
2013-01-15 03:19:00,9.0,-3.9,30.44,NNW,338,0.0,0.0,55,0.00,,,0.00,Wunderground v.1.15,2013-01-15 10:19:00,
2013-01-15 03:24:00,9.1,-3.8,30.44,NNW,338,0.0,0.0,55,0.00,,,0.00,Wunderground v.1.15,2013-01-15 10:24:00,
2013-01-15 03:29:00,9.0,-3.5,30.44,NNW,338,0.0,0.0,56,0.00,,,0.00,Wunderground v.1.15,2013-01-15 10:29:00,
2013-01-15 03:34:00,8.7,-3.8,30.44,NNW,338,0.0,0.0,56,0.00,,,0.00,Wunderground v.1.15,2013-01-15 10:34:00,
2013-01-15 03:39:00,8.4,-3.7,30.45,NNW,338,0.0,0.0,57,0.00,,,0.00,Wunderground v.1.15,2013-01-15 10:39:00,
2013-01-15 03:44:00,8.2,-3.9,30.44,NNW,338,0.0,0.0,57,0.00,,,0.00,Wunderground v.1.15,2013-01-15 10:44:00,
2013-01-15 03:49:00,7.9,-4.2,30.44,NNW,338,0.0,0.0,57,0.00,,,0.00,Wunderground v.1.15,2013-01-15 10:49:00,
2013-01-15 03:54:00,7.8,-4.3,30.45,NNW,338,0.0,0.0,57,0.00,,,0.00,Wunderground v.1.15,2013-01-15 10:54:00,
2013-01-15 03:59:00,7.8,-3.9,30.45,NNW,338,0.0,0.0,58,0.00,,,0.00,Wunderground v.1.15,2013-01-15 10:59:00,
2013-01-15 04:04:00,7.6,-4.1,30.44,NNW,338,0.0,0.0,58,0.00,,,0.00,Wunderground v.1.15,2013-01-15 11:04:00,
2013-01-15 04:09:00,7.4,-4.0,30.45,NNW,338,0.0,0.0,59,0.00,,,0.00,Wunderground v.1.15,2013-01-15 11:09:00,
2013-01-15 04:14:00,7.1,-4.2,30.44,NNW,338,0.0,0.0,59,0.00,,,0.00,Wunderground v.1.15,2013-01-15 11:14:00,
2013-01-15 04:19:00,6.7,-3.9,30.45,NNW,338,0.0,0.0,61,0.00,,,0.00,Wunderground v.1.15,2013-01-15 11:19:00,
2013-01-15 04:24:00,6.6,-3.7,30.44,NNW,338,0.0,0.0,62,0.00,,,0.00,Wunderground v.1.15,2013-01-15 11:24:00,
2013-01-15 04:29:00,6.7,-3.6,30.44,NNW,338,0.0,0.0,62,0.00,,,0.00,Wunderground v.1.15,2013-01-15 11:29:00,
2013-01-15 04:34:00,6.1,-4.1,30.44,NNW,338,1.0,1.0,62,0.00,,,0.00,Wunderground v.1.15,2013-01-15 11:34:00,
2013-01-15 04:39:00,5.8,-4.4,30.44,NNW,338,0.0,1.0,62,0.00,,,0.00,Wunderground v.1.15,2013-01-15 11:39:00,
2013-01-15 04:44:00,5.8,-4.1,30.44,NNW,338,0.0,0.0,63,0.00,,,0.00,Wunderground v.1.15,2013-01-15 11:44:00,
2013-01-15 04:49:00,5.7,-4.2,30.45,NNW,338,0.0,0.0,63,0.00,,,0.00,Wunderground v.1.15,2013-01-15 11:49:00,
2013-01-15 04:54:00,5.6,-4.3,30.45,NNW,338,0.0,0.0,63,0.00,,,0.00,Wunderground v.1.15,2013-01-15 11:54:00,
2013-01-15 04:59:00,5.3,-4.2,30.45,NNW,338,0.0,1.0,64,0.00,,,0.00,Wunderground v.1.15,2013-01-15 11:59:00,
2013-01-15 05:04:00,5.1,-4.1,30.45,NNW,338,0.0,0.0,65,0.00,,,0.00,Wunderground v.1.15,2013-01-15 12:04:00,
2013-01-15 05:09:00,5.1,-4.1,30.44,NNW,338,0.0,0.0,65,0.00,,,0.00,Wunderground v.1.15,2013-01-15 12:09:00,
2013-01-15 05:14:00,5.2,-3.7,30.45,NNW,338,0.0,0.0,66,0.00,,,0.00,Wunderground v.1.15,2013-01-15 12:14:00,
2013-01-15 05:20:00,5.2,-3.7,30.45,NNW,338,0.0,0.0,66,0.00,,,0.00,Wunderground v.1.15,2013-01-15 12:20:00,
2013-01-15 05:25:00,5.2,-3.7,30.44,NNW,338,0.0,0.0,66,0.00,,,0.00,Wunderground v.1.15,2013-01-15 12:25:00,
2013-01-15 05:30:00,5.2,-4.0,30.45,NNW,338,0.0,0.0,65,0.00,,,0.00,Wunderground v.1.15,2013-01-15 12:30:00,
2013-01-15 05:35:00,5.3,-3.9,30.45,NNW,338,0.0,0.0,65,0.00,,,0.00,Wunderground v.1.15,2013-01-15 12:35:00,
2013-01-15 05:40:00,5.5,-3.7,30.45,NNW,338,0.0,0.0,65,0.00,,,0.00,Wunderground v.1.15,2013-01-15 12:40:00,
2013-01-15 05:45:00,5.7,-3.5,30.45,NNW,338,0.0,0.0,65,0.00,,,0.00,Wunderground v.1.15,2013-01-15 12:45:00,
2013-01-15 05:50:00,5.6,-4.0,30.45,NNW,338,0.0,1.0,64,0.00,,,0.00,Wunderground v.1.15,2013-01-15 12:50:00,
2013-01-15 05:55:00,5.5,-4.1,30.45,NNW,338,0.0,0.0,64,0.00,,,0.00,Wunderground v.1.15,2013-01-15 12:55:00,
2013-01-15 06:00:00,5.6,-3.6,30.45,NNW,338,0.0,0.0,65,0.00,,,0.00,Wunderground v.1.15,2013-01-15 13:00:00,
2013-01-15 06:05:00,5.7,-3.5,30.46,NNW,338,0.0,0.0,65,0.00,,,0.00,Wunderground v.1.15,2013-01-15 13:05:00,
2013-01-15 06:10:00,5.8,-3.4,30.46,NNW,338,0.0,0.0,65,0.00,,,0.00,Wunderground v.1.15,2013-01-15 13:10:00,
2013-01-15 06:15:00,5.8,-3.4,30.47,NNW,338,0.0,0.0,65,0.00,,,0.00,Wunderground v.1.15,2013-01-15 13:15:00,
2013-01-15 06:20:00,5.7,-3.5,30.46,NNW,338,0.0,0.0,65,0.00,,,0.00,Wunderground v.1.15,2013-01-15 13:20:00,
2013-01-15 06:25:00,5.6,-4.0,30.46,NNW,338,0.0,0.0,64,0.00,,,0.00,Wunderground v.1.15,2013-01-15 13:25:00,
2013-01-15 06:30:00,5.7,-3.9,30.46,NNW,338,0.0,0.0,64,0.00,,,0.00,Wunderground v.1.15,2013-01-15 13:30:00,
2013-01-15 06:35:00,5.8,-3.8,30.46,NNW,338,0.0,0.0,64,0.00,,,0.00,Wunderground v.1.15,2013-01-15 13:35:00,
2013-01-15 06:40:00,5.7,-3.9,30.47,NNW,338,0.0,0.0,64,0.00,,,0.00,Wunderground v.1.15,2013-01-15 13:40:00,
2013-01-15 06:45:00,5.5,-3.7,30.46,NNW,338,0.0,0.0,65,0.00,,,0.00,Wunderground v.1.15,2013-01-15 13:45:00,
2013-01-15 06:50:00,5.3,-3.6,30.46,NNW,338,0.0,0.0,66,0.00,,,0.00,Wunderground v.1.15,2013-01-15 13:50:00,
2013-01-15 06:55:00,5.3,-3.3,30.46,NNW,338,0.0,0.0,67,0.00,,,0.00,Wunderground v.1.15,2013-01-15 13:55:00,
2013-01-15 07:00:00,5.5,-3.1,30.47,NNW,338,0.0,0.0,67,0.00,,,0.00,Wunderground v.1.15,2013-01-15 14:00:00,
2013-01-15 07:05:00,5.6,-3.3,30.47,NNW,338,0.0,0.0,66,0.00,,,0.00,Wunderground v.1.15,2013-01-15 14:05:00,
2013-01-15 07:10:00,5.7,-3.2,30.48,NNW,338,0.0,0.0,66,0.00,,,0.00,Wunderground v.1.15,2013-01-15 14:10:00,
2013-01-15 07:15:00,6.0,-3.3,30.48,NNW,338,0.0,0.0,65,0.00,,,0.00,Wunderground v.1.15,2013-01-15 14:15:00,
2013-01-15 07:20:00,6.0,-3.3,30.48,NNW,338,0.0,0.0,65,0.00,,,0.00,Wunderground v.1.15,2013-01-15 14:20:00,
2013-01-15 07:25:00,6.0,-2.9,30.49,NNW,338,0.0,0.0,66,0.00,,,0.00,Wunderground v.1.15,2013-01-15 14:25:00,
2013-01-15 07:30:00,6.2,-3.1,30.49,NNW,338,0.0,0.0,65,0.00,,,0.00,Wunderground v.1.15,2013-01-15 14:30:00,
2013-01-15 07:35:00,6.2,-3.1,30.49,NNW,338,0.0,0.0,65,0.00,,,0.00,Wunderground v.1.15,2013-01-15 14:35:00,
2013-01-15 07:40:00,6.3,-3.0,30.50,NNW,338,0.0,0.0,65,0.00,,,0.00,Wunderground v.1.15,2013-01-15 14:40:00,
2013-01-15 07:45:00,6.3,-2.6,30.50,NNW,338,0.0,0.0,66,0.00,,,0.00,Wunderground v.1.15,2013-01-15 14:45:00,
2013-01-15 07:50:00,6.4,-2.5,30.51,NNW,338,0.0,0.0,66,0.00,,,0.00,Wunderground v.1.15,2013-01-15 14:50:00,
2013-01-15 07:55:00,7.9,-1.8,30.51,NNW,338,0.0,0.0,64,0.00,,,0.00,Wunderground v.1.15,2013-01-15 14:55:00,
2013-01-15 08:00:00,9.5,-1.6,30.52,NNW,338,0.0,0.0,60,0.00,,,0.00,Wunderground v.1.15,2013-01-15 15:00:00,
2013-01-15 08:05:00,10.5,-1.8,30.52,NNW,338,0.0,0.0,57,0.00,,,0.00,Wunderground v.1.15,2013-01-15 15:05:00,
2013-01-15 08:10:00,11.1,-1.9,30.52,NNW,338,0.0,0.0,55,0.00,,,0.00,Wunderground v.1.15,2013-01-15 15:10:00,
2013-01-15 08:15:00,11.6,-1.5,30.52,NNW,338,0.0,1.0,55,0.00,,,0.00,Wunderground v.1.15,2013-01-15 15:15:00,
2013-01-15 08:20:00,12.2,-0.9,30.52,NNW,338,0.0,1.0,55,0.00,,,0.00,Wunderground v.1.15,2013-01-15 15:20:00,
2013-01-15 08:25:00,12.6,-0.9,30.52,NNW,338,0.0,0.0,54,0.00,,,0.00,Wunderground v.1.15,2013-01-15 15:25:00,
2013-01-15 08:30:00,13.4,-1.0,30.53,NNW,338,0.0,0.0,52,0.00,,,0.00,Wunderground v.1.15,2013-01-15 15:30:00,
2013-01-15 08:35:00,14.0,-1.3,30.53,NNW,338,0.0,2.0,50,0.00,,,0.00,Wunderground v.1.15,2013-01-15 15:35:00,
2013-01-15 08:40:00,14.9,-0.8,30.53,North,350,1.0,2.0,49,0.00,,,0.00,Wunderground v.1.15,2013-01-15 15:40:00,
2013-01-15 08:45:00,15.3,-1.8,30.53,NW,323,1.0,3.0,46,0.00,,,0.00,Wunderground v.1.15,2013-01-15 15:45:00,
2013-01-15 08:50:00,15.9,-1.3,30.53,North,351,0.0,3.0,46,0.00,,,0.00,Wunderground v.1.15,2013-01-15 15:50:00,
2013-01-15 08:55:00,16.8,-0.9,30.53,NNW,331,1.0,3.0,45,0.00,,,0.00,Wunderground v.1.15,2013-01-15 15:55:00,
2013-01-15 09:00:00,16.7,-2.0,30.53,NNW,340,0.0,3.0,43,0.00,,,0.00,Wunderground v.1.15,2013-01-15 16:00:00,
2013-01-15 09:05:00,17.0,-1.7,30.53,North,355,0.0,1.0,43,0.00,,,0.00,Wunderground v.1.15,2013-01-15 16:05:00,
2013-01-15 09:10:00,17.2,-1.0,30.52,North,355,0.0,1.0,44,0.00,,,0.00,Wunderground v.1.15,2013-01-15 16:10:00,
2013-01-15 09:15:00,17.7,-2.1,30.52,North,351,0.0,1.0,41,0.00,,,0.00,Wunderground v.1.15,2013-01-15 16:15:00,
2013-01-15 09:20:00,18.2,-2.1,30.53,NNW,346,0.0,3.0,40,0.00,,,0.00,Wunderground v.1.15,2013-01-15 16:20:00,
2013-01-15 09:25:00,19.2,-1.8,30.53,NW,312,0.0,1.0,39,0.00,,,0.00,Wunderground v.1.15,2013-01-15 16:25:00,
2013-01-15 09:30:00,19.5,-1.5,30.53,NW,326,1.0,3.0,39,0.00,,,0.00,Wunderground v.1.15,2013-01-15 16:30:00,
2013-01-15 09:35:00,19.7,-1.8,30.52,NNW,331,3.0,3.0,38,0.00,,,0.00,Wunderground v.1.15,2013-01-15 16:35:00,
2013-01-15 09:40:00,20.2,-1.4,30.52,NNW,334,0.0,3.0,38,0.00,,,0.00,Wunderground v.1.15,2013-01-15 16:40:00,
2013-01-15 09:45:00,20.5,-1.7,30.52,NW,314,0.0,3.0,37,0.00,,,0.00,Wunderground v.1.15,2013-01-15 16:45:00,
2013-01-15 09:50:00,20.4,-2.4,30.52,NW,316,2.0,4.0,36,0.00,,,0.00,Wunderground v.1.15,2013-01-15 16:50:00,
2013-01-15 09:55:00,21.1,-1.2,30.53,North,349,1.0,3.0,37,0.00,,,0.00,Wunderground v.1.15,2013-01-15 16:55:00,
2013-01-15 10:00:00,21.4,-1.5,30.52,NW,313,2.0,4.0,36,0.00,,,0.00,Wunderground v.1.15,2013-01-15 17:00:00,
2013-01-15 10:05:00,21.5,-2.0,30.53,NW,316,2.0,4.0,35,0.00,,,0.00,Wunderground v.1.15,2013-01-15 17:05:00,
2013-01-15 10:10:00,22.1,-0.8,30.52,WNW,298,3.0,4.0,36,0.00,,,0.00,Wunderground v.1.15,2013-01-15 17:10:00,
2013-01-15 10:15:00,23.4,-0.9,30.53,NNW,338,2.0,3.0,34,0.00,,,0.00,Wunderground v.1.15,2013-01-15 17:15:00,
2013-01-15 10:20:00,23.1,-1.8,30.53,NW,324,2.0,5.0,33,0.00,,,0.00,Wunderground v.1.15,2013-01-15 17:20:00,
2013-01-15 10:25:00,23.6,-2.0,30.53,NW,309,3.0,4.0,32,0.00,,,0.00,Wunderground v.1.15,2013-01-15 17:25:00,
2013-01-15 10:31:00,24.1,-2.2,30.53,NNW,344,0.0,4.0,31,0.00,,,0.00,Wunderground v.1.15,2013-01-15 17:31:00,
2013-01-15 10:36:00,24.4,-2.0,30.53,NNE,12,1.0,4.0,31,0.00,,,0.00,Wunderground v.1.15,2013-01-15 17:36:00,
2013-01-15 10:41:00,24.8,-2.3,30.52,WNW,289,0.0,4.0,30,0.00,,,0.00,Wunderground v.1.15,2013-01-15 17:41:00,
2013-01-15 10:46:00,25.6,-2.3,30.53,NNW,333,2.0,4.0,29,0.00,,,0.00,Wunderground v.1.15,2013-01-15 17:46:00,
2013-01-15 10:51:00,25.5,-3.1,30.53,NNE,31,1.0,5.0,28,0.00,,,0.00,Wunderground v.1.15,2013-01-15 17:51:00,
2013-01-15 10:56:00,25.4,-4.0,30.53,WNW,298,1.0,4.0,27,0.00,,,0.00,Wunderground v.1.15,2013-01-15 17:56:00,
2013-01-15 11:01:00,26.6,-3.7,30.53,NW,323,0.0,1.0,26,0.00,,,0.00,Wunderground v.1.15,2013-01-15 18:01:00,
2013-01-15 11:06:00,26.1,-4.2,30.54,NW,304,1.0,5.0,26,0.00,,,0.00,Wunderground v.1.15,2013-01-15 18:06:00,
2013-01-15 11:11:00,26.4,-3.9,30.54,NW,315,0.0,1.0,26,0.00,,,0.00,Wunderground v.1.15,2013-01-15 18:11:00,
2013-01-15 11:16:00,26.9,-4.3,30.54,NW,319,1.0,5.0,25,0.00,,,0.00,Wunderground v.1.15,2013-01-15 18:16:00,
2013-01-15 11:21:00,27.6,-2.9,30.54,East,82,0.0,1.0,26,0.00,,,0.00,Wunderground v.1.15,2013-01-15 18:21:00,
2013-01-15 11:26:00,28.5,-2.9,30.54,ESE,123,2.0,3.0,25,0.00,,,0.00,Wunderground v.1.15,2013-01-15 18:26:00,
2013-01-15 11:31:00,28.6,-2.8,30.54,East,95,0.0,0.0,25,0.00,,,0.00,Wunderground v.1.15,2013-01-15 18:31:00,
2013-01-15 11:37:00,28.8,-3.5,30.54,ENE,64,0.0,1.0,24,0.00,,,0.00,Wunderground v.1.15,2013-01-15 18:37:00,
2013-01-15 11:42:00,29.1,-3.3,30.53,East,80,1.0,1.0,24,0.00,,,0.00,Wunderground v.1.15,2013-01-15 18:42:00,
2013-01-15 11:47:00,29.1,-2.4,30.53,East,86,0.0,4.0,25,0.00,,,0.00,Wunderground v.1.15,2013-01-15 18:47:00,
2013-01-15 11:52:00,29.4,-3.0,30.52,NW,322,0.0,1.0,24,0.00,,,0.00,Wunderground v.1.15,2013-01-15 18:52:00,
2013-01-15 11:57:00,30.2,-2.3,30.52,North,360,2.0,3.0,24,0.00,,,0.00,Wunderground v.1.15,2013-01-15 18:57:00,
2013-01-15 12:02:00,30.3,-3.1,30.52,ENE,77,0.0,1.0,23,0.00,,,0.00,Wunderground v.1.15,2013-01-15 19:02:00,
2013-01-15 12:07:00,30.3,-2.2,30.52,East,80,1.0,3.0,24,0.00,,,0.00,Wunderground v.1.15,2013-01-15 19:07:00,
2013-01-15 12:12:00,29.0,-2.5,30.51,ESE,110,0.0,1.0,25,0.00,,,0.00,Wunderground v.1.15,2013-01-15 19:12:00,
2013-01-15 12:17:00,30.0,-2.5,30.50,WNW,294,2.0,5.0,24,0.00,,,0.00,Wunderground v.1.15,2013-01-15 19:17:00,
2013-01-15 12:22:00,31.2,-2.4,30.50,NE,34,0.0,1.0,23,0.00,,,0.00,Wunderground v.1.15,2013-01-15 19:22:00,
2013-01-15 12:27:00,29.9,-3.5,30.49,SE,131,0.0,4.0,23,0.00,,,0.00,Wunderground v.1.15,2013-01-15 19:27:00,
2013-01-15 12:32:00,30.2,-2.3,30.49,East,88,1.0,1.0,24,0.00,,,0.00,Wunderground v.1.15,2013-01-15 19:32:00,
2013-01-15 12:37:00,31.6,-2.0,30.49,ENE,60,0.0,3.0,23,0.00,,,0.00,Wunderground v.1.15,2013-01-15 19:37:00,
2013-01-15 12:42:00,31.6,-2.0,30.49,NE,44,0.0,2.0,23,0.00,,,0.00,Wunderground v.1.15,2013-01-15 19:42:00,
2013-01-15 12:47:00,32.0,-2.6,30.49,ENE,78,0.0,4.0,22,0.00,,,0.00,Wunderground v.1.15,2013-01-15 19:47:00,
2013-01-15 12:52:00,33.1,-1.7,30.49,NW,318,3.0,3.0,22,0.00,,,0.00,Wunderground v.1.15,2013-01-15 19:52:00,
2013-01-15 12:57:00,32.4,-3.3,30.49,North,360,0.0,6.0,21,0.00,,,0.00,Wunderground v.1.15,2013-01-15 19:57:00,
2013-01-15 13:02:00,32.0,-2.6,30.49,North,350,0.0,1.0,22,0.00,,,0.00,Wunderground v.1.15,2013-01-15 20:02:00,
2013-01-15 13:07:00,32.1,-2.5,30.48,East,101,1.0,4.0,22,0.00,,,0.00,Wunderground v.1.15,2013-01-15 20:07:00,
2013-01-15 13:12:00,32.4,-3.3,30.48,NW,322,2.0,4.0,21,0.00,,,0.00,Wunderground v.1.15,2013-01-15 20:12:00,
2013-01-15 13:17:00,32.5,-2.2,30.48,SSE,150,0.0,4.0,22,0.00,,,0.00,Wunderground v.1.15,2013-01-15 20:17:00,
2013-01-15 13:22:00,32.4,-2.3,30.48,WNW,298,2.0,2.0,22,0.00,,,0.00,Wunderground v.1.15,2013-01-15 20:22:00,
2013-01-15 13:27:00,33.8,-2.1,30.47,NW,326,0.0,3.0,21,0.00,,,0.00,Wunderground v.1.15,2013-01-15 20:27:00,
2013-01-15 13:32:00,34.1,-2.9,30.48,NNW,343,1.0,2.0,20,0.00,,,0.00,Wunderground v.1.15,2013-01-15 20:32:00,
2013-01-15 13:37:00,34.2,-1.8,30.48,East,86,0.0,2.0,21,0.00,,,0.00,Wunderground v.1.15,2013-01-15 20:37:00,
2013-01-15 13:42:00,34.0,-1.9,30.47,ESE,109,1.0,1.0,21,0.00,,,0.00,Wunderground v.1.15,2013-01-15 20:42:00,
2013-01-15 13:47:00,34.2,-0.8,30.47,East,98,0.0,5.0,22,0.00,,,0.00,Wunderground v.1.15,2013-01-15 20:47:00,
2013-01-15 13:52:00,34.3,-0.7,30.47,East,90,0.0,1.0,22,0.00,,,0.00,Wunderground v.1.15,2013-01-15 20:52:00,
2013-01-15 13:57:00,33.6,-1.3,30.47,ESE,115,1.0,3.0,22,0.00,,,0.00,Wunderground v.1.15,2013-01-15 20:57:00,
2013-01-15 14:02:00,34.2,1.1,30.47,ESE,109,2.0,3.0,24,0.00,,,0.00,Wunderground v.1.15,2013-01-15 21:02:00,
2013-01-15 14:07:00,33.9,-1.0,30.47,ESE,111,0.0,3.0,22,0.00,,,0.00,Wunderground v.1.15,2013-01-15 21:07:00,
2013-01-15 14:12:00,34.3,0.3,30.47,SSE,154,0.0,5.0,23,0.00,,,0.00,Wunderground v.1.15,2013-01-15 21:12:00,
2013-01-15 14:17:00,34.2,-0.8,30.47,East,91,1.0,5.0,22,0.00,,,0.00,Wunderground v.1.15,2013-01-15 21:17:00,
2013-01-15 14:22:00,34.6,-0.4,30.46,ESE,120,0.0,2.0,22,0.00,,,0.00,Wunderground v.1.15,2013-01-15 21:22:00,
2013-01-15 14:27:00,35.7,-0.5,30.46,ESE,110,0.0,2.0,21,0.00,,,0.00,Wunderground v.1.15,2013-01-15 21:27:00,
2013-01-15 14:32:00,36.8,-0.6,30.46,ESE,111,0.0,1.0,20,0.00,,,0.00,Wunderground v.1.15,2013-01-15 21:32:00,
2013-01-15 14:38:00,37.0,-0.4,30.46,ESE,111,0.0,2.0,20,0.00,,,0.00,Wunderground v.1.15,2013-01-15 21:38:00,
2013-01-15 14:43:00,37.2,-0.3,30.46,ESE,111,0.0,1.0,20,0.00,,,0.00,Wunderground v.1.15,2013-01-15 21:43:00,
2013-01-15 14:48:00,37.4,-0.1,30.46,ESE,111,0.0,1.0,20,0.00,,,0.00,Wunderground v.1.15,2013-01-15 21:48:00,
2013-01-15 14:53:00,37.6,0.1,30.46,SSE,155,0.0,1.0,20,0.00,,,0.00,Wunderground v.1.15,2013-01-15 21:53:00,
2013-01-15 14:58:00,38.2,0.6,30.46,SSE,155,0.0,1.0,20,0.00,,,0.00,Wunderground v.1.15,2013-01-15 21:58:00,
2013-01-15 15:03:00,38.9,1.2,30.46,ENE,78,0.0,0.0,20,0.00,,,0.00,Wunderground v.1.15,2013-01-15 22:03:00,
2013-01-15 15:08:00,38.9,0.1,30.46,ENE,65,1.0,1.0,19,0.00,,,0.00,Wunderground v.1.15,2013-01-15 22:08:00,
2013-01-15 15:13:00,38.4,-0.4,30.46,ENE,57,0.0,1.0,19,0.00,,,0.00,Wunderground v.1.15,2013-01-15 22:13:00,
2013-01-15 15:18:00,38.4,-0.4,30.46,NNW,336,0.0,3.0,19,0.00,,,0.00,Wunderground v.1.15,2013-01-15 22:18:00,
2013-01-15 15:23:00,38.5,0.8,30.47,East,84,2.0,2.0,20,0.00,,,0.00,Wunderground v.1.15,2013-01-15 22:23:00,
2013-01-15 15:28:00,39.1,1.3,30.48,ENE,66,1.0,2.0,20,0.00,,,0.00,Wunderground v.1.15,2013-01-15 22:28:00,
2013-01-15 15:33:00,39.6,1.7,30.48,NNW,329,2.0,3.0,20,0.00,,,0.00,Wunderground v.1.15,2013-01-15 22:33:00,
2013-01-15 15:38:00,39.7,0.7,30.47,NW,304,0.0,3.0,19,0.00,,,0.00,Wunderground v.1.15,2013-01-15 22:38:00,
2013-01-15 15:43:00,39.5,1.7,30.48,NNW,343,1.0,4.0,20,0.00,,,0.00,Wunderground v.1.15,2013-01-15 22:43:00,
2013-01-15 15:48:00,40.0,1.0,30.48,NNW,336,0.0,4.0,19,0.00,,,0.00,Wunderground v.1.15,2013-01-15 22:48:00,
2013-01-15 15:53:00,40.0,2.1,30.47,WNW,297,0.0,2.0,20,0.00,,,0.00,Wunderground v.1.15,2013-01-15 22:53:00,
2013-01-15 15:58:00,40.3,1.2,30.47,NNW,346,2.0,2.0,19,0.00,,,0.00,Wunderground v.1.15,2013-01-15 22:58:00,
2013-01-15 16:03:00,40.5,1.4,30.48,NNW,344,0.0,3.0,19,0.00,,,0.00,Wunderground v.1.15,2013-01-15 23:03:00,
2013-01-15 16:08:00,40.7,2.7,30.48,East,82,0.0,3.0,20,0.00,,,0.00,Wunderground v.1.15,2013-01-15 23:08:00,
2013-01-15 16:13:00,40.8,1.6,30.47,East,82,0.0,2.0,19,0.00,,,0.00,Wunderground v.1.15,2013-01-15 23:13:00,
2013-01-15 16:18:00,40.8,2.7,30.47,East,84,0.0,2.0,20,0.00,,,0.00,Wunderground v.1.15,2013-01-15 23:18:00,
2013-01-15 16:23:00,40.5,2.5,30.47,North,5,2.0,3.0,20,0.00,,,0.00,Wunderground v.1.15,2013-01-15 23:23:00,
2013-01-15 16:28:00,40.2,2.2,30.47,North,5,0.0,3.0,20,0.00,,,0.00,Wunderground v.1.15,2013-01-15 23:28:00,
2013-01-15 16:33:00,40.0,2.1,30.47,NNW,348,1.0,3.0,20,0.00,,,0.00,Wunderground v.1.15,2013-01-15 23:33:00,
2013-01-15 16:38:00,39.6,3.8,30.47,NE,43,2.0,4.0,22,0.00,,,0.00,Wunderground v.1.15,2013-01-15 23:38:00,
2013-01-15 16:43:00,39.4,2.6,30.48,ENE,76,0.0,1.0,21,0.00,,,0.00,Wunderground v.1.15,2013-01-15 23:43:00,
2013-01-15 16:48:00,39.2,3.5,30.48,ENE,71,0.0,2.0,22,0.00,,,0.00,Wunderground v.1.15,2013-01-15 23:48:00,
2013-01-15 16:53:00,38.9,3.2,30.48,NW,319,0.0,2.0,22,0.00,,,0.00,Wunderground v.1.15,2013-01-15 23:53:00,
2013-01-15 16:58:00,38.7,3.0,30.48,NW,319,0.0,2.0,22,0.00,,,0.00,Wunderground v.1.15,2013-01-15 23:58:00,
2013-01-15 17:03:00,38.5,2.9,30.48,East,80,0.0,1.0,22,0.00,,,0.00,Wunderground v.1.15,2013-01-16 00:03:00,
2013-01-15 17:08:00,38.2,2.6,30.48,ENE,78,0.0,1.0,22,0.00,,,0.00,Wunderground v.1.15,2013-01-16 00:08:00,
2013-01-15 17:13:00,37.9,3.3,30.48,ENE,77,0.0,0.0,23,0.00,,,0.00,Wunderground v.1.15,2013-01-16 00:13:00,
2013-01-15 17:18:00,37.6,3.1,30.49,NNE,15,0.0,1.0,23,0.00,,,0.00,Wunderground v.1.15,2013-01-16 00:18:00,
2013-01-15 17:23:00,37.2,2.7,30.48,North,5,2.0,4.0,23,0.00,,,0.00,Wunderground v.1.15,2013-01-16 00:23:00,
2013-01-15 17:28:00,36.7,3.2,30.49,North,360,0.0,5.0,24,0.00,,,0.00,Wunderground v.1.15,2013-01-16 00:28:00,
2013-01-15 17:33:00,36.1,3.6,30.49,NNW,342,0.0,3.0,25,0.00,,,0.00,Wunderground v.1.15,2013-01-16 00:33:00,
2013-01-15 17:38:00,35.6,4.0,30.49,NNW,335,2.0,3.0,26,0.00,,,0.00,Wunderground v.1.15,2013-01-16 00:38:00,
2013-01-15 17:43:00,35.1,4.4,30.49,NNW,346,0.0,1.0,27,0.00,,,0.00,Wunderground v.1.15,2013-01-16 00:43:00,
2013-01-15 17:48:00,34.7,4.9,30.49,NNW,346,0.0,1.0,28,0.00,,,0.00,Wunderground v.1.15,2013-01-16 00:48:00,
2013-01-15 17:53:00,34.2,5.2,30.49,NNW,346,0.0,0.0,29,0.00,,,0.00,Wunderground v.1.15,2013-01-16 00:53:00,
2013-01-15 17:59:00,33.6,4.7,30.49,NNW,341,0.0,2.0,29,0.00,,,0.00,Wunderground v.1.15,2013-01-16 00:59:00,
2013-01-15 18:04:00,33.2,5.1,30.49,NNE,19,2.0,2.0,30,0.00,,,0.00,Wunderground v.1.15,2013-01-16 01:04:00,
2013-01-15 18:09:00,32.7,5.3,30.50,North,360,0.0,3.0,31,0.00,,,0.00,Wunderground v.1.15,2013-01-16 01:09:00,
2013-01-15 18:14:00,32.2,4.9,30.50,NNW,327,0.0,3.0,31,0.00,,,0.00,Wunderground v.1.15,2013-01-16 01:14:00,
2013-01-15 18:19:00,31.9,4.6,30.50,NNW,339,0.0,4.0,31,0.00,,,0.00,Wunderground v.1.15,2013-01-16 01:19:00,
2013-01-15 18:24:00,31.6,5.1,30.50,NW,321,1.0,7.0,32,0.00,,,0.00,Wunderground v.1.15,2013-01-16 01:24:00,
2013-01-15 18:29:00,31.4,4.9,30.50,North,5,2.0,7.0,32,0.00,,,0.00,Wunderground v.1.15,2013-01-16 01:29:00,
2013-01-15 18:34:00,31.2,4.7,30.50,NW,319,2.0,5.0,32,0.00,,,0.00,Wunderground v.1.15,2013-01-16 01:34:00,
2013-01-15 18:39:00,31.2,4.7,30.50,NNW,344,5.0,7.0,32,0.00,,,0.00,Wunderground v.1.15,2013-01-16 01:39:00,
2013-01-15 18:44:00,31.2,4.7,30.50,North,355,4.0,6.0,32,0.00,,,0.00,Wunderground v.1.15,2013-01-16 01:44:00,
2013-01-15 18:49:00,31.1,4.6,30.51,NNW,344,0.0,7.0,32,0.00,,,0.00,Wunderground v.1.15,2013-01-16 01:49:00,
2013-01-15 18:54:00,31.0,5.2,30.51,North,11,2.0,6.0,33,0.00,,,0.00,Wunderground v.1.15,2013-01-16 01:54:00,
2013-01-15 18:59:00,30.7,4.9,30.51,NNW,335,0.0,6.0,33,0.00,,,0.00,Wunderground v.1.15,2013-01-16 01:59:00,
2013-01-15 19:04:00,30.5,4.8,30.51,NNW,332,3.0,6.0,33,0.00,,,0.00,Wunderground v.1.15,2013-01-16 02:04:00,
2013-01-15 19:09:00,30.3,5.2,30.51,NNW,341,3.0,6.0,34,0.00,,,0.00,Wunderground v.1.15,2013-01-16 02:09:00,
2013-01-15 19:14:00,30.2,5.2,30.51,NW,323,3.0,6.0,34,0.00,,,0.00,Wunderground v.1.15,2013-01-16 02:14:00,
2013-01-15 19:19:00,30.1,5.1,30.51,North,5,3.0,6.0,34,0.00,,,0.00,Wunderground v.1.15,2013-01-16 02:19:00,
2013-01-15 19:24:00,29.9,4.9,30.51,ENE,57,3.0,5.0,34,0.00,,,0.00,Wunderground v.1.15,2013-01-16 02:24:00,
2013-01-15 19:29:00,29.7,5.3,30.51,NNW,331,3.0,6.0,35,0.00,,,0.00,Wunderground v.1.15,2013-01-16 02:29:00,
2013-01-15 19:34:00,29.4,5.1,30.51,NW,317,2.0,5.0,35,0.00,,,0.00,Wunderground v.1.15,2013-01-16 02:34:00,
2013-01-15 19:39:00,29.3,5.6,30.51,NNW,346,2.0,7.0,36,0.00,,,0.00,Wunderground v.1.15,2013-01-16 02:39:00,
2013-01-15 19:44:00,29.1,5.4,30.52,NW,315,5.0,5.0,36,0.00,,,0.00,Wunderground v.1.15,2013-01-16 02:44:00,
2013-01-15 19:49:00,28.4,5.4,30.52,NW,320,2.0,6.0,37,0.00,,,0.00,Wunderground v.1.15,2013-01-16 02:49:00,
2013-01-15 19:54:00,27.8,5.4,30.52,NNW,330,3.0,6.0,38,0.00,,,0.00,Wunderground v.1.15,2013-01-16 02:54:00,
2013-01-15 19:59:00,27.6,5.8,30.52,NNW,337,1.0,6.0,39,0.00,,,0.00,Wunderground v.1.15,2013-01-16 02:59:00,
2013-01-15 20:04:00,27.3,5.6,30.52,NNW,329,2.0,3.0,39,0.00,,,0.00,Wunderground v.1.15,2013-01-16 03:04:00,
2013-01-15 20:10:00,27.2,5.5,30.52,NNW,338,3.0,4.0,39,0.00,,,0.00,Wunderground v.1.15,2013-01-16 03:10:00,
2013-01-15 20:15:00,27.2,5.5,30.53,NW,323,0.0,2.0,39,0.00,,,0.00,Wunderground v.1.15,2013-01-16 03:15:00,
2013-01-15 20:20:00,27.1,5.4,30.53,NW,315,0.0,2.0,39,0.00,,,0.00,Wunderground v.1.15,2013-01-16 03:20:00,
2013-01-15 20:25:00,26.8,5.1,30.53,NW,315,0.0,1.0,39,0.00,,,0.00,Wunderground v.1.15,2013-01-16 03:25:00,
2013-01-15 20:30:00,26.5,5.4,30.53,NW,315,0.0,1.0,40,0.00,,,0.00,Wunderground v.1.15,2013-01-16 03:30:00,
2013-01-15 20:35:00,26.2,5.1,30.53,NNW,339,0.0,1.0,40,0.00,,,0.00,Wunderground v.1.15,2013-01-16 03:35:00,
2013-01-15 20:40:00,26.0,5.5,30.53,NNW,346,1.0,2.0,41,0.00,,,0.00,Wunderground v.1.15,2013-01-16 03:40:00,
2013-01-15 20:45:00,25.8,5.3,30.53,NNW,346,0.0,1.0,41,0.00,,,0.00,Wunderground v.1.15,2013-01-16 03:45:00,
2013-01-15 20:50:00,25.7,5.7,30.53,NNW,346,0.0,1.0,42,0.00,,,0.00,Wunderground v.1.15,2013-01-16 03:50:00,
2013-01-15 20:55:00,25.5,5.6,30.53,NNW,346,0.0,0.0,42,0.00,,,0.00,Wunderground v.1.15,2013-01-16 03:55:00,
2013-01-15 21:00:00,25.3,5.9,30.53,NNW,346,0.0,0.0,43,0.00,,,0.00,Wunderground v.1.15,2013-01-16 04:00:00,
2013-01-15 21:05:00,25.1,5.7,30.53,NNW,346,0.0,0.0,43,0.00,,,0.00,Wunderground v.1.15,2013-01-16 04:05:00,
2013-01-15 21:10:00,24.9,6.0,30.53,NNW,346,0.0,0.0,44,0.00,,,0.00,Wunderground v.1.15,2013-01-16 04:10:00,
2013-01-15 21:15:00,24.7,5.8,30.53,NNW,346,0.0,0.0,44,0.00,,,0.00,Wunderground v.1.15,2013-01-16 04:15:00,
2013-01-15 21:20:00,24.5,6.2,30.53,NNW,346,0.0,0.0,45,0.00,,,0.00,Wunderground v.1.15,2013-01-16 04:20:00,
2013-01-15 21:25:00,24.1,6.3,30.53,NNW,346,0.0,0.0,46,0.00,,,0.00,Wunderground v.1.15,2013-01-16 04:25:00,
2013-01-15 21:30:00,23.6,6.3,30.54,NNW,346,0.0,0.0,47,0.00,,,0.00,Wunderground v.1.15,2013-01-16 04:30:00,
2013-01-15 21:35:00,23.3,6.0,30.54,WSW,240,0.0,0.0,47,0.00,,,0.00,Wunderground v.1.15,2013-01-16 04:35:00,
2013-01-15 21:40:00,23.4,6.1,30.54,WNW,288,0.0,1.0,47,0.00,,,0.00,Wunderground v.1.15,2013-01-16 04:40:00,
2013-01-15 21:45:00,23.6,5.8,30.54,WNW,288,0.0,1.0,46,0.00,,,0.00,Wunderground v.1.15,2013-01-16 04:45:00,
2013-01-15 21:50:00,23.8,6.0,30.54,WNW,302,0.0,2.0,46,0.00,,,0.00,Wunderground v.1.15,2013-01-16 04:50:00,
2013-01-15 21:55:00,23.8,6.0,30.54,WNW,296,0.0,0.0,46,0.00,,,0.00,Wunderground v.1.15,2013-01-16 04:55:00,
2013-01-15 22:00:00,23.8,6.0,30.54,North,355,0.0,2.0,46,0.00,,,0.00,Wunderground v.1.15,2013-01-16 05:00:00,
2013-01-15 22:01:00,23.8,6.0,30.54,NW,323,2.0,2.0,46,0.00,,,0.00,Wunderground v.1.15,2013-01-16 05:01:00,
2013-01-15 22:03:00,23.9,6.1,30.54,WNW,288,0.0,2.0,46,0.00,,,0.00,Wunderground v.1.15,2013-01-16 05:03:00,
2013-01-15 22:08:00,24.0,6.2,30.54,NW,321,0.0,3.0,46,0.00,,,0.00,Wunderground v.1.15,2013-01-16 05:08:00,
2013-01-15 22:13:00,24.0,5.7,30.54,NW,321,0.0,1.0,45,0.00,,,0.00,Wunderground v.1.15,2013-01-16 05:13:00,
2013-01-15 22:18:00,23.9,5.6,30.54,NW,321,0.0,1.0,45,0.00,,,0.00,Wunderground v.1.15,2013-01-16 05:18:00,
2013-01-15 22:23:00,23.8,5.5,30.54,NW,321,0.0,1.0,45,0.00,,,0.00,Wunderground v.1.15,2013-01-16 05:23:00,
2013-01-15 22:28:00,23.8,6.0,30.55,WNW,290,0.0,1.0,46,0.00,,,0.00,Wunderground v.1.15,2013-01-16 05:28:00,
2013-01-15 22:33:00,23.6,5.8,30.55,WSW,253,0.0,0.0,46,0.00,,,0.00,Wunderground v.1.15,2013-01-16 05:33:00,
2013-01-15 22:38:00,23.6,5.8,30.55,WNW,288,0.0,2.0,46,0.00,,,0.00,Wunderground v.1.15,2013-01-16 05:38:00,
2013-01-15 22:43:00,23.5,5.7,30.55,NNW,329,0.0,1.0,46,0.00,,,0.00,Wunderground v.1.15,2013-01-16 05:43:00,
2013-01-15 22:48:00,23.5,5.7,30.55,WNW,297,0.0,1.0,46,0.00,,,0.00,Wunderground v.1.15,2013-01-16 05:48:00,
2013-01-15 22:53:00,23.6,5.8,30.55,NW,304,0.0,1.0,46,0.00,,,0.00,Wunderground v.1.15,2013-01-16 05:53:00,
2013-01-15 22:58:00,23.6,5.8,30.55,NW,308,0.0,2.0,46,0.00,,,0.00,Wunderground v.1.15,2013-01-16 05:58:00,
2013-01-15 23:03:00,23.6,6.3,30.54,NW,325,0.0,2.0,47,0.00,,,0.00,Wunderground v.1.15,2013-01-16 06:03:00,
2013-01-15 23:08:00,23.7,6.4,30.54,West,267,0.0,3.0,47,0.00,,,0.00,Wunderground v.1.15,2013-01-16 06:08:00,
2013-01-15 23:13:00,23.7,6.4,30.54,WNW,291,0.0,2.0,47,0.00,,,0.00,Wunderground v.1.15,2013-01-16 06:13:00,
2013-01-15 23:18:00,23.8,6.0,30.55,NNW,343,0.0,3.0,46,0.00,,,0.00,Wunderground v.1.15,2013-01-16 06:18:00,
2013-01-15 23:23:00,23.7,6.4,30.55,NNW,343,0.0,1.0,47,0.00,,,0.00,Wunderground v.1.15,2013-01-16 06:23:00,
2013-01-15 23:28:00,23.7,6.4,30.54,NNW,343,0.0,1.0,47,0.00,,,0.00,Wunderground v.1.15,2013-01-16 06:28:00,
2013-01-15 23:33:00,23.6,6.3,30.55,NW,321,0.0,1.0,47,0.00,,,0.00,Wunderground v.1.15,2013-01-16 06:33:00,
2013-01-15 23:39:00,23.6,6.3,30.55,NNW,333,0.0,2.0,47,0.00,,,0.00,Wunderground v.1.15,2013-01-16 06:39:00,
2013-01-15 23:44:00,23.6,6.8,30.55,NW,318,0.0,1.0,48,0.00,,,0.00,Wunderground v.1.15,2013-01-16 06:44:00,
2013-01-15 23:49:00,23.5,6.7,30.55,NW,311,0.0,2.0,48,0.00,,,0.00,Wunderground v.1.15,2013-01-16 06:49:00,
2013-01-15 23:54:00,23.5,6.7,30.55,NW,309,0.0,1.0,48,0.00,,,0.00,Wunderground v.1.15,2013-01-16 06:54:00,
2013-01-15 23:59:00,23.4,6.6,30.55,West,266,0.0,1.0,48,0.00,,,0.00,Wunderground v.1.15,2013-01-16 06:59:00,